Вернуться в каталог

STARLINK-30411

АктивенСвязьVLEO
NORAD 57828·PAYLOAD·🇺🇸 United States

Запущен Sep 9, 2023 с Cape Canaveral Space Force Station

Loading…

Ближайшие Пролёты (ближайшие 24 часа)

TLE

СвежийSource: CelesTrak SupGP

Эпоха: Sep 15, 2026, 01:43 UTC

1 57828C 23138W   26258.07201389 -.00016599  00000+0 -60125-3 0  2586
2 57828  43.0016 244.5041 0001229 262.6215  86.0793 15.27584334    10

Отслеживайте STARLINK-30411 в реальном времени с AllMySat

Download on the App Store